Location: Ergnies
(50.0854°N, 2.0375°E)
Time: 14:19:09
(UTC+00:00)

Cosmos 2184 Rocket - Visible Passes

Search period start: 11 April 2026 00:00
Search period end: 21 April 2026 00:00
Orbit: 959 x 1001 km, 82.9° (Epoch: 11 April)

Date Brightness Start Highest point End Pass type
(mag) Time Alt. Az. Time Alt. Az. Time Alt. Az.
11 Apr 5.4 20:31:54 10° SW 20:37:50 40° WNW 20:43:48 10° N visible
12 Apr 4.1 19:12:28 10° S 19:18:48 71° E 19:25:08 10° NNE visible
12 Apr 6.3 20:59:48 10° WSW 21:04:55 25° WNW 21:10:02 10° N visible
13 Apr 7.1 04:19:54 10° NNE 04:23:33 16° NE 04:27:10 10° E visible
13 Apr 4.4 19:39:06 10° SSW 19:45:27 71° WNW 19:51:50 10° N visible
13 Apr 6.8 21:28:34 10° W 21:32:12 15° NW 21:35:49 10° NNW visible
14 Apr 5.4 20:06:17 10° SW 20:12:18 43° WNW 20:18:20 10° N visible
15 Apr 6.3 20:34:05 10° WSW 20:39:21 27° WNW 20:44:36 10° N visible
16 Apr 7.2 03:54:37 10° NNE 03:57:56 15° NE 04:01:13 10° E visible
16 Apr 4.4 19:13:34 10° SSW 19:19:57 76° W 19:26:19 10° N visible
16 Apr 6.9 21:02:42 10° W 21:06:35 17° WNW 21:10:28 10° NNW visible
17 Apr 6.8 04:20:19 10° N 04:25:14 23° ENE 04:30:06 10° ESE visible
17 Apr 5.3 19:40:41 10° SW 19:46:46 46° WNW 19:52:51 10° N visible
18 Apr 6.3 20:08:22 10° SW 20:13:46 28° WNW 20:19:09 10° N visible
19 Apr 7.4 03:29:21 10° NNE 03:32:18 13° NE 03:35:13 10° E visible
19 Apr 6.9 20:36:51 10° W 20:40:59 18° WNW 20:45:07 10° NNW visible
20 Apr 6.9 03:54:54 10° NNE 03:59:38 22° ENE 04:04:18 10° ESE visible
20 Apr 7.4 21:07:09 10° WNW 21:08:26 11° NW 21:09:42 10° NW visible
